Current Version              Previous Version:    01  02  03  04  05  06  07  08  09  10  11  12  13  14  15  16  17  18  19  20  21  22  23  24  25  26  27  28  29  30  
   31  32  33  34  35  36  37  38  39  40  41  42  43  44  45  46  47  48  49  50  51  52  53  54  55  56  57  58  59  60  

[Printable]
381
ASUS44 KFWD 270901
RWRTX
NORTH TEXAS HOURLY WEATHER ROUNDUP
NATIONAL WEATHER SERVICE FORT WORTH TX
300 AM CST THU NOV 27 2014

NOTE: "FAIR" INDICATES FEW OR NO CLOUDS BELOW 12,000 FEET WITH NO
SIGNIFICANT WEATHER AND/OR OBSTRUCTIONS TO VISIBILITY.

TXZ118-119-271000-
DALLAS/FORT WORTH METROPLEX

CITY           SKY/WX    TMP DP  RH WIND       PRES   REMARKS
DFW AIRPORT    CLEAR     41  27  57 N9        30.46R WCI  35
DALLAS LOVE    CLEAR     43  28  55 NW5       30.47R
FTW MEACHAM    CLEAR     41  28  60 N5        30.46R WCI  38
DAL-EXECUTIVE  CLEAR     44  27  51 N9        30.44R WCI  39
FTW-ALLIANCE   CLEAR     41  26  55 N13       30.45R WCI  34
ARLINGTON      CLEAR     46  26  45 N13       30.45R
GRAND PRAIRIE  CLEAR     44  30  59 N9        30.47R WCI  39
MESQUITE       CLEAR     44  26  49 N6        30.45R
LANCASTER      CLEAR     41  25  52 N7        30.46R WCI  37
$$

TXZ091>094-102>105-117-120-121-131>134-271000-
NORTH CENTRAL TEXAS

CITY           SKY/WX    TMP DP  RH WIND       PRES   REMARKS
SHRMAN/DENISON CLEAR     41  30  64 N10G16    30.48R WCI  35
BRIDGEPORT     CLEAR     37  28  72 CALM      30.48R
DENTON         CLEAR     37  27  67 N3        30.47R
MCKINNEY       CLEAR     41  26  55 N6        30.45R WCI  37
ROCKWALL       CLEAR     42  27  55 N5        30.44R WCI  39
TERRELL        CLEAR     44  27  51 N6        30.45R
WAXAHACHIE     CLEAR     41  32  70 N6        30.46R WCI  37
$$

TXZ083>090-098>101-113>116-127>130-139>142-154-155-271000-
WESTERN NORTH TEXAS

CITY           SKY/WX    TMP DP  RH WIND       PRES   REMARKS
WICHITA FALLS  CLEAR     36  27  69 NE8       30.48R WCI  30
WF-KICKAPOO    CLEAR     38  26  61 N5        30.50R WCI  35
ABILENE        CLEAR     41  32  70 N6        30.44R WCI  37
ABILENE-DYESS  CLEAR     34  30  86 N1        30.44R
MINERAL WELLS  CLEAR     38  31  76 NW3       30.45R
STEPHENVILLE   CLEAR     44  30  59 NE8       30.45R WCI  39
COMANCHE       CLEAR     41  36  81 NW6       30.42S WCI  37
$$

TXZ143>147-156>162-174-175-271000-
CENTRAL TEXAS

CITY           SKY/WX    TMP DP  RH WIND       PRES   REMARKS
WACO           CLEAR     44  35  70 N7        30.42R
WACO-MCGREGOR  CLEAR     43  30  61 N3        30.43R
CORSICANA      CLEAR     45  30  55 N8        30.44R
MEXIA          CLEAR     46  32  59 N6        30.41R
TEMPLE         CLEAR     41  32  70 N7        30.40R WCI  36
KILLEEN        CLEAR     41  35  81 N12       30.40S WCI  34
KILLEEN-SKYLRK CLEAR     45  30  57 N6        30.38R
FORT HOOD      CLEAR     48  34  58 NW6       30.41R
HAMILTON       CLEAR     40  33  76 N6        30.43R WCI  36
LAMPASAS       CLEAR     44  36  72 N3        30.40R
$$

TXZ095>097-106>112-122>126-135>138-148>153-164>167-271000-
EAST TEXAS

CITY           SKY/WX    TMP DP  RH WIND       PRES   REMARKS
PARIS          CLEAR     39  25  56 NW10      30.48R WCI  32
SULPHUR SPRNGS CLEAR     44  29  56 N12       30.47R WCI  38
MINEOLA        CLEAR     45  27  49 N7        30.45R
TYLER          CLEAR     45  29  53 N9        30.41R
LONGVIEW       CLEAR     46  29  51 N8        30.41R
JACKSONVILLE   CLEAR     47  31  53 N6        30.42R
NACOGDOCHES    CLEAR     37  34  87 N5        30.40R WCI  34
LUFKIN         CLEAR     46  35  65 N3        30.39R
$$

SUPPLEMENTAL OBSERVATIONS (CENTRAL)

CITY           SKY/WX    TMP DP  RH WIND       PRES   REMARKS
$$

SUPPLEMENTAL OBSERVATIONS (WEST)

CITY           SKY/WX    TMP DP  RH WIND       PRES   REMARKS
$$

SUPPLEMENTAL OBSERVATIONS (EAST)

CITY           SKY/WX    TMP DP  RH WIND       PRES   REMARKS
$$

SUPPLEMENTAL OBSERVATIONS ARE A COLLECTION OF AUTOMATED INSTRUMENTS
THAT ARE MAINTAINED BY A VARIETY OF FEDERAL AND STATE AGENCIES.
CERTAIN ELEMENTS...SUCH AS HUMIDITY VALUES AND SUSTAINED WIND
SPEEDS...MAY BE APPROXIMATED.